Location: Unspecified
(33.6682°S, 0.0000°E)
Time: 19:14:47
(UTC+00:00)

Transit 4A - Visible Passes

Search period start: 07 August 2020 00:00
Search period end: 17 August 2020 00:00
Orbit: 865 x 980 km, 66.8° (Epoch: 07 August)

Date Brightness Start Highest point End Pass type
(mag) Time Alt. Az. Time Alt. Az. Time Alt. Az.
09 Aug 10.5 04:58:58 10° SSE 05:00:32 11° SE 05:02:05 10° ESE visible
10 Aug 10.2 05:06:36 10° S 05:10:16 17° SE 05:13:54 10° E visible
11 Aug 9.8 05:15:08 10° S 05:19:53 25° SE 05:24:33 10° ENE visible
11 Aug 10.2 20:16:29 10° NNW 20:17:03 13° NNW 20:17:03 13° NNW visible
12 Aug 9.2 05:24:00 10° S 05:29:24 37° ESE 05:34:44 10° NE visible
12 Aug 9.8 18:43:16 10° NE 18:43:56 11° NE 18:43:56 11° NE visible
12 Aug 9.9 20:25:47 10° NNW 20:27:32 20° NW 20:27:32 20° NW visible
13 Aug 8.4 05:33:03 10° SSW 05:38:49 57° ESE 05:44:30 10° NE visible
13 Aug 9.1 18:50:41 10° NNE 18:54:30 22° ENE 18:54:30 22° ENE visible
13 Aug 9.7 20:35:24 10° NW 20:38:07 25° WNW 20:38:07 25° WNW visible
14 Aug 10.4 03:58:26 10° SSE 04:00:59 13° SE 04:03:32 10° ESE visible
14 Aug 7.8 05:42:16 10° SSW 05:48:09 88° ESE 05:53:58 10° NNE visible
14 Aug 8.4 18:58:57 10° N 19:04:36 36° ENE 19:05:07 35° E visible
14 Aug 9.7 20:45:21 10° WNW 20:48:45 26° W 20:48:45 26° W visible
15 Aug 10.1 04:06:34 10° S 04:10:41 19° SE 04:14:45 10° E visible
15 Aug 7.8 05:51:40 10° SW 05:57:24 59° WNW 06:03:06 10° N visible
15 Aug 7.9 19:07:40 10° N 19:13:48 56° ENE 19:15:45 40° ESE visible
15 Aug 10.0 20:55:43 10° WNW 20:59:23 21° WSW 20:59:23 21° WSW visible
16 Aug 9.5 04:15:15 10° S 04:20:16 28° SE 04:25:13 10° ENE visible
16 Aug 8.3 06:01:17 10° SW 06:06:36 37° WNW 06:11:52 10° N visible
16 Aug 7.8 19:16:46 10° NNW 19:23:03 86° ENE 19:26:22 30° SSE visible
16 Aug 10.4 21:06:40 10° W 21:09:59 15° SW 21:09:59 15° SW visible
